Regional Weather Roundup
Issued by NWS Albany, NY

Home | Current Version | Previous Version | Text Only | Print | Product List | Glossary On
Versions: 1 2 3 4 5 6 7 8 9 10 11 12 13 14 15 16 17 18 19 20 21 22 23 24 25 26 27 28 29 30 31 32 33 34 35 36 37 38 39 40 41 42 43 44 45 46 47 48 49 50
252
ASUS41 KALY 081210
RWRALY

NEW YORK STATE HOURLY WEATHER ROUNDUP
NATIONAL WEATHER SERVICE ALBANY NY
700 AM EST MON FEB 08 2016

NOTE: "FAIR" INDICATES FEW OR NO CLOUDS BELOW 12,000 FEET WITH NO
SIGNIFICANT WEATHER AND/OR NO OBSTRUCTIONS TO VISIBILITY.

NYZ032-033-038>043-046>054-057>066-NYZ062>081-081300-
EAST


CITY           SKY/WX    TMP DP  RH WIND       PRES   REMARKS
ALBANY         CLOUDY    27  19  72 NE3       29.87R
GLENS FALLS    CLOUDY    24  17  74 NE6       29.88S WCI  17
POUGHKEEPSIE   CLOUDY    37  25  61 NE8       29.81R WCI  31
NEWBURGH       CLOUDY    34  27  75 NE14      29.80R WCI  24
MONTGOMERY     CLOUDY    34  25  69 NE12      29.79R WCI  25
WHITE PLAINS   CLOUDY    35  26  69 NE10      29.76R WCI  27
ISLIP          LGT SNOW  34  29  82 NE17      29.74R WCI  23
NEW YORK CITY  CLOUDY    39  28  64 NE20G28   29.77R WCI  29
CENTRAL PARK   CLOUDY    38  26  62 NE13G21   29.79R WCI  30
$$

NYZ005>009-017-018-044>046-055-056-081300-
CENTRAL


CITY           SKY/WX    TMP DP  RH WIND       PRES   REMARKS
FULTON         CLOUDY    33  23  66 VRB5      29.81R WCI  29
SYRACUSE       CLOUDY    27  23  85 E7        29.82R WCI  19
ROME           CLOUDY    25  20  81 CALM      29.86R
ELMIRA         CLOUDY    22  20  92 CALM      29.78S
BINGHAMTON     CLOUDY    26  19  74 NE6       29.75S WCI  19
MONTICELLO     CLOUDY    30  23  74 E10G16    29.75S WCI  21
$$

NYZ026>034-041>043-081300-
NORTH


CITY           SKY/WX    TMP DP  RH WIND       PRES   REMARKS
WATERTOWN      CLOUDY    20  15  81 NE10      29.84S WCI   9
FORT DRUM      NOT AVBL
MASSENA        CLOUDY    17   6  62 E14       29.96S WCI   3
SARANAC LAKE   CLOUDY    14  11  87 N3        29.80F
PLATTSBURGH    PTCLDY    17   7  64 NW6       29.95F WCI   9
$$

NYZ001>004-010>016-019>021-081300-
WEST


CITY           SKY/WX    TMP DP  RH WIND       PRES   REMARKS
NIAGARA FALLS  CLOUDY    38  27  64 E7        29.69S WCI  33
BUFFALO        CLOUDY    38  26  62 E6        29.70S WCI  33
DUNKIRK        CLOUDY    41  25  53 S12       29.67F
JAMESTOWN      PTCLDY    34  21  60 SE6       29.66F WCI  29
WELLSVILLE     CLOUDY    31  22  69 SE8       29.71R WCI  23
ROCHESTER      CLOUDY    37  25  61 SE9       29.74R WCI  30
PENN YAN       CLOUDY    29  23  78 CALM      29.76S
$$

             KEY
       WCI = WIND CHILL INDEX
       VSB = VISIBILITY
       HX  = HEAT INDEX
$$




USA.gov is the U.S. government's official web portal to all federal, state and local government web resources and services.